Weather History for Garrison, ND

Change the Weather History Date:

Wednesday, May 13, 2009

  Actual Average Record
Temperature  
Mean Temperature 40 °F -  
Max Temperature 51 °F 62 °F 89 °F (2013)
Min Temperature 33 °F 37 °F 26 °F (2004)
Degree Days  
Heating Degree Days 24    
Moisture  
Dew Point 37 °F    
Average Humidity 80    
Maximum Humidity 100    
Minimum Humidity 61    
Precipitation  
Precipitation 0.02 in - - ()
Sea Level Pressure  
Sea Level Pressure 29.61 in    
Wind  
Wind Speed 22 mph (WNW)    
Max Wind Speed 37 mph    
Max Gust Speed 47 mph    
Averages and records for this station are not official NWS values.
T = Trace of Precipitation, MM = Missing Value Source: NWS Daily Summary

Daily Weather History Graph

Daily Weather History Graph

Search for Another Location

Airport:

Trip Planner

Search our weather history database for the weather conditions in past years. The results will help you decide how hot, cold, wet, or windy it might be!

Date:

Astronomy

May. 13, 2009 Rise Set
Actual Time 6:10 AM CDT 9:14 PM CDT
Civil Twilight 5:34 AM CDT 9:51 PM CDT
Nautical Twilight 4:47 AM CDT 10:38 PM CDT
Astronomical Twilight 3:49 AM CDT 11:36 PM CDT
Moon 1:03 AM CDT (5/13) 9:13 AM CDT (5/13)
Length of Visible Light 16h 17m
Length of Day
15h 04m
Waning Gibbous, 82% of the Moon is Illuminated
May 13
Waning Gibbous
May 17
Last Quarter
May 24
New
May 30
First Quarter
Jun 7
Full

Hourly Weather History & Observations

Time (CDT) Temp. Windchill Dew Point Humidity Pressure Visibility Wind Dir Wind Speed Gust Speed Precip Events Conditions
12:52 AM 48.9 °F - 46.9 °F 93% 29.42 in - WSW 9.2 mph - N/A   Unknown
1:52 AM 48.9 °F - 46.0 °F 90% 29.38 in - WSW 9.2 mph - N/A   Unknown
2:52 AM 46.9 °F - 44.1 °F 90% 29.36 in - WSW 13.8 mph - N/A   Unknown
3:52 AM 46.9 °F - 41.0 °F 80% 29.37 in - West 16.1 mph - N/A   Unknown
4:52 AM 46.9 °F - 39.0 °F 74% 29.39 in - West 19.6 mph 27.6 mph N/A   Unknown
5:52 AM 46.9 °F - 39.0 °F 74% 29.39 in - West 24.2 mph 33.4 mph N/A   Unknown
6:52 AM 46.0 °F 37.4 °F 39.0 °F 76% 29.42 in - West 25.3 mph 33.4 mph N/A   Unknown
7:52 AM 46.9 °F - 36.0 °F 66% 29.44 in - West 33.4 mph 39.1 mph N/A   Unknown
8:52 AM 48.9 °F - 37.0 °F 64% 29.47 in - West 33.4 mph 40.3 mph N/A   Unknown
9:52 AM 48.9 °F - 39.0 °F 69% 29.50 in - West 32.2 mph 46.0 mph N/A   Unknown
10:52 AM 48.0 °F - 37.9 °F 68% 29.52 in - West 31.1 mph 38.0 mph N/A   Unknown
11:52 AM 48.0 °F - 36.0 °F 63% 29.55 in - West 31.1 mph 39.1 mph N/A   Unknown
12:52 PM 48.9 °F - 36.0 °F 61% 29.57 in - West 32.2 mph 39.1 mph N/A   Unknown
1:52 PM 48.0 °F - 37.0 °F 66% 29.59 in - West 32.2 mph 41.4 mph N/A   Unknown
2:52 PM 43.0 °F 32.2 °F 35.1 °F 74% 29.64 in - West 32.2 mph 43.7 mph N/A   Unknown
3:52 PM 41.0 °F 30.0 °F 34.0 °F 76% 29.67 in - WNW 28.8 mph 43.7 mph N/A   Unknown
4:52 PM 35.1 °F 20.6 °F 33.1 °F 92% 29.72 in - WNW 36.8 mph 47.2 mph N/A   Unknown
5:52 PM 33.1 °F 18.9 °F 33.1 °F 100% 29.77 in - WNW 31.1 mph 42.6 mph N/A   Unknown
6:52 PM 34.0 °F 20.5 °F 33.1 °F 96% 29.82 in - WNW 28.8 mph 36.8 mph 0.02 in   Unknown
7:52 PM 36.0 °F 22.8 °F 34.0 °F 93% 29.86 in - WNW 31.1 mph 42.6 mph N/A   Unknown
8:52 PM 37.0 °F 24.7 °F 34.0 °F 89% 29.89 in - NW 28.8 mph 38.0 mph N/A   Unknown
9:52 PM 37.0 °F 24.5 °F 33.1 °F 86% 29.94 in - NW 29.9 mph 38.0 mph N/A   Unknown
10:52 PM 37.0 °F 25.1 °F 32.0 °F 82% 29.97 in - NW 26.5 mph 35.7 mph N/A   Unknown
11:52 PM 36.0 °F 24.4 °F 32.0 °F 86% 29.99 in - NW 23.0 mph 31.1 mph N/A   Unknown